SCP
0 0 0 0 0 0 0 0 0 0 0 0 0 0 0 2 1 1 1 1 1 1
0 0 0 0 0 0 0 0 0 0 0 0 0 0 0 0 0 0 1 1 1 1
0 0 0 0 0 0 0 0 0 0 0 0 0 0 0 0 0 0 0 0 0 0
-0 -0 -0 0 0 0 0 0 0 0 0 0 0 0 0 0 0 0 0 0 0 0
0 -0 -0 -0 0 0 0 0 0 0 0 0 0 0 0 0 0 0 0 0 0 0
-0 0 -0 -0 -0 -0 0 0 0 0 0 0 0 0 0 0 0 0 0 0 0 0
-0 0 -0 -0 -0 -0 -0 0 0 0 0 0 0 0 0 0 0 0 0 0 0 0
0 -0 -0 0 -0 -0 -0 -0 0 0 0 0 0 0 0 0 0 0 0 0 0 0
0 -0 -0 -0 -0 -0 -0 -0 0 0 0 -0 0 0 0 0 0 0 0 0 0 0
-0 -0 -0 -0 -0 -0 -0 -0 -0 -0 0 0 0 0 0 0 0 0 0 0 0 0
0 0 0 -0 -0 -0 -0 -0 -0 -0 -0 0 0 0 0 0 0 0 0 0 0 0
0 0 0 0 0 0 0 0 -0 -0 -0 -0 -0 -0 -0 0 0 0 0 0 0 0
0 -0 -0 -0 -0 -0 -0 -0 -0 0 0 0 0 -0 -0 0 0 0 0 0 0 0
-0 -0 -0 -0 -0 -0 -0 -0 -0 -0 -0 0 0 0 0 0 0 0 -0 -0 0 0
Wind_Speed_500mb
31 35 38 31 42 33 29 31 28 47 44 52 29 11 71 86 91 94 91 89 85 83
30 16 14 18 17 26 41 36 32 20 34 29 13 27 48 51 66 63 71 81 88 77
44 32 20 13 23 30 29 34 30 18 15 22 24 47 38 27 9 34 35 36 35 84
61 52 51 46 46 60 64 61 43 39 29 16 9 16 18 33 30 18 21 21 20 13
81 69 70 58 57 74 80 70 68 65 54 57 49 33 30 17 24 16 22 27 25 10
79 82 76 73 66 92 94 93 89 77 69 61 57 53 45 42 50 38 34 32 23 21
77 82 84 90 98 102 96 94 85 85 80 75 69 64 53 51 51 51 47 42 36 31
66 75 84 92 96 97 98 94 87 85 81 79 74 70 55 51 48 49 50 47 47 46
74 78 81 83 88 89 90 86 81 82 83 77 74 66 60 58 58 55 53 53 48 44
72 75 78 77 80 84 83 82 84 83 79 77 73 67 66 64 60 58 57 54 54 51
68 70 72 73 76 76 77 79 78 75 72 68 72 67 64 60 58 57 58 60 56 54
65 65 67 70 70 70 70 72 75 72 68 67 67 65 61 56 54 55 55 54 55 56
60 62 65 65 66 67 69 70 68 69 71 67 66 64 61 58 57 53 52 51 52 55
52 57 58 59 60 61 64 65 67 66 64 62 59 59 55 53 49 51 50 52 55 55
Wind_Direction_500mb
335 318 292 275 268 252 252 212 226 237 270 276 286 157 195 220 227 226 225 231 233 232
4 342 324 266 250 217 222 223 237 253 257 236 228 152 228 215 220 227 238 246 240 233
38 49 62 96 117 135 165 163 146 120 133 168 163 181 231 248 279 228 233 232 226 212
43 56 68 61 87 102 111 124 133 124 136 166 126 130 115 199 223 246 245 320 5 62
48 51 63 55 64 92 95 105 102 97 111 102 105 108 124 129 111 145 136 198 217 314
52 52 60 59 54 85 88 89 95 92 90 91 85 79 77 80 82 88 66 62 35 17
58 60 59 62 65 72 77 81 84 85 86 81 80 79 75 72 67 68 70 68 62 50
65 66 65 63 63 65 70 75 75 77 77 76 74 70 70 72 65 62 59 57 55 54
63 61 63 63 63 63 65 67 70 73 73 71 66 63 59 60 57 54 54 52 50 47
58 60 61 62 62 62 60 61 62 62 63 64 61 55 51 49 48 44 41 37 34 30
56 57 58 59 58 60 58 56 56 56 55 54 54 50 47 43 41 38 35 29 23 20
56 57 58 58 57 58 57 57 56 56 53 49 47 42 39 35 34 33 29 25 19 13
55 56 58 59 59 58 57 56 52 49 47 44 41 36 30 26 22 18 17 15 11 10
53 53 53 56 57 57 56 54 51 47 45 41 39 36 30 26 23 22 15 12 9 8
Wind_Speed_850mb
31 35 38 31 42 33 29 31 28 47 44 52 29 11 71 86 91 94 91 89 85 83
30 16 14 18 17 26 41 36 32 20 34 29 13 27 48 51 66 63 71 81 88 77
44 32 20 13 23 30 29 34 30 18 15 22 24 47 38 27 9 34 35 36 35 84
61 52 51 46 46 60 64 61 43 39 29 16 9 16 18 33 30 18 21 21 20 13
81 69 70 58 57 74 80 70 68 65 54 57 49 33 30 17 24 16 22 27 25 10
79 82 76 73 66 92 94 93 89 77 69 61 57 53 45 42 50 38 34 32 23 21
77 82 84 90 98 102 96 94 85 85 80 75 69 64 53 51 51 51 47 42 36 31
66 75 84 92 96 97 98 94 87 85 81 79 74 70 55 51 48 49 50 47 47 46
74 78 81 83 88 89 90 86 81 82 83 77 74 66 60 58 58 55 53 53 48 44
72 75 78 77 80 84 83 82 84 83 79 77 73 67 66 64 60 58 57 54 54 51
68 70 72 73 76 76 77 79 78 75 72 68 72 67 64 60 58 57 58 60 56 54
65 65 67 70 70 70 70 72 75 72 68 67 67 65 61 56 54 55 55 54 55 56
60 62 65 65 66 67 69 70 68 69 71 67 66 64 61 58 57 53 52 51 52 55
52 57 58 59 60 61 64 65 67 66 64 62 59 59 55 53 49 51 50 52 55 55
Wind_Direction_850mb
335 318 292 275 268 252 252 212 226 237 270 276 286 157 195 220 227 226 225 231 233 232
4 342 324 266 250 217 222 223 237 253 257 236 228 152 228 215 220 227 238 246 240 233
38 49 62 96 117 135 165 163 146 120 133 168 163 181 231 248 279 228 233 232 226 212
43 56 68 61 87 102 111 124 133 124 136 166 126 130 115 199 223 246 245 320 5 62
48 51 63 55 64 92 95 105 102 97 111 102 105 108 124 129 111 145 136 198 217 314
52 52 60 59 54 85 88 89 95 92 90 91 85 79 77 80 82 88 66 62 35 17
58 60 59 62 65 72 77 81 84 85 86 81 80 79 75 72 67 68 70 68 62 50
65 66 65 63 63 65 70 75 75 77 77 76 74 70 70 72 65 62 59 57 55 54
63 61 63 63 63 63 65 67 70 73 73 71 66 63 59 60 57 54 54 52 50 47
58 60 61 62 62 62 60 61 62 62 63 64 61 55 51 49 48 44 41 37 34 30
56 57 58 59 58 60 58 56 56 56 55 54 54 50 47 43 41 38 35 29 23 20
56 57 58 58 57 58 57 57 56 56 53 49 47 42 39 35 34 33 29 25 19 13
55 56 58 59 59 58 57 56 52 49 47 44 41 36 30 26 22 18 17 15 11 10
53 53 53 56 57 57 56 54 51 47 45 41 39 36 30 26 23 22 15 12 9 8